EUTELSAT 174A

Last updated on Thu Nov 21 2024 00:02:40 GMT+0000 (Coordinated Universal Time)

1 28924U 05052A 24325.60568979 .00000012 00000+0 00000+0 0 9994 2 28924 2.7602 83.5925 0006789 158.6849 209.9015 1.00271844 46583
UTC large
Height (km)
Speed (km/s)
/
Latitude / Longitude
Inclination (degrees)
Orbital Period (minutes)
Azimuth
Elevation
Range (km)
Doppler Factor

Next 0 passes for location: London (51.5072 / 0.1276)

Sorry there are no passes over London.